Location: Unspecified
(0.0000°N, 0.0000°E)
Time: 09:42:22
(UTC+00:00)

COSMOS 2251 DEB - Pass Details

Date: 17 February 2026
Orbit: 744 x 1394 km, 73.9° (Epoch: 9 March)

Event Time Altitude Azimuth Distance (km) Brightness Sun altitude
Exits shadow 05:08:59 21° 270° (W) 2,562 ? -15.9°
Maximum altitude 05:10:25 22° 255° (WSW) 2,536 ? -15.5°
Drops below altitude 10° 05:16:21 10° 209° (SSW) 3,423 ? -14.1°
Sets 05:20:10 0° 195° (SSW) 4,439 ? -13.2°
